ICESAT-2 (43613 NORAD) Tracking and Keplerian Element Data

This shows tracking and keplerian element data for the satellite.

Feedback or suggestion? Click here.




ElementValue
Catalog43613
NameICESAT-2
Epoch Orbit922
Epoch Day318.89103924
Epoch Year2018
RAAN264.9831
Inclination92.0017
Eccentricity0.0002814
Argument of Perigee83.0555
Mean Anonmoly277.1014
Mean Motion15.28287859
Decay Rate1.418E-05
L11 43613U 18070A 18318.89103924 .00001418 00000-0 51325-4 0 9994
L22 43613 92.0017 264.9831 0002814 83.0555 277.1014 15.28287859 9222

Live tracking and technical data element details for ICESAT-2 (NORAD 43613). ICESAT-2 can be tracked NOW for your location showing map with azimuth and elevation plus other details from your city location.

Track the satellite on the map from your city or location and see movement details for azimuth, elevation, latitude, longitude, range, height, and movement on the map or in text.







IsCatalogInMostPopularTable: catalog: 43613, numindb: 19
Update: records affected: 1



GetName: 43613 ICESAT-2

Hit Count: updated at: Fri, 16 Nov 2018 02:55:34 GMT